[[{"header":{"parameterUnit":"m.s-1","parameterCategory":1,"la1":30.2991,"la2":30.254,"lo1":-89.0895,"lo2":-89.0444,"dy":0.0017,"dx":0.0017,"nx":28,"ny":28,"refTime":"2024-03-25T09:00:00:Z","depth":0,"parameterNumber":2,"parameterNumberName":"U-component_of_WINDS"},"data":[0,0,0,0,0,0,0,0,0,0,0,0,0,0,0,0,0,0,0,0,0,0,0,0,0,0,0,0,0,0,0,0,0,0,0,0,0,0,0,0,0,0,0,0,0,0,0,0,0,0,0,0,0,0,0,0,0,0,-3.3222,-3.3224,0,-3.345,-3.3452,-3.3455,-3.3529,-3.3528,-3.3527,-3.3526,-3.3753,-3.376,-3.3766,0,0,0,0,0,0,0,0,0,0,0,0,0,-3.2843,-3.2849,-3.3221,-3.3224,-3.3227,-3.3449,-3.3452,-3.3456,-3.3529,-3.3528,-3.3527,-3.3526,-3.3751,-3.3759,-3.3767,0,0,0,0,0,0,0,0,0,0,0,0,0,-3.3032,-3.2851,-3.3221,-3.3291,-3.3299,-3.3449,-3.3453,-3.3456,-3.353,-3.3528,-3.3527,-3.3525,-3.3748,-3.3758,-3.3768,-3.3862,0,0,-3.38,-3.3805,0,0,0,0,0,0,0,0,-3.3021,-3.3046,-3.3278,-3.3286,-3.3296,-3.346,-3.3402,-3.3592,-3.353,-3.3442,-3.3526,-3.3524,-3.3656,-3.3674,-3.372,-3.3873,-3.3883,-3.3801,-3.3807,-3.3812,-3.3815,0,0,0,0,0,0,0,-3.3008,-3.3037,-3.3312,-3.3281,-3.3292,-3.3309,-3.3334,-3.3438,-3.3554,-3.345,-3.3456,-3.3482,-3.3661,-3.3709,-3.3726,-3.3886,-3.3801,-3.381,-3.3816,-3.382,-3.4128,-3.4129,0,0,0,0,0,0,-3.2984,-3.3025,-3.3304,-3.3318,-3.3153,-3.3317,-3.3345,-3.3409,-3.3553,-3.3574,-3.3483,-3.3484,-3.3692,-3.3713,-3.3734,-3.3854,-3.3812,-3.3821,-3.3827,-3.4126,-3.4128,-3.413,0,0,0,0,0,0,-3.2976,-3.3008,-3.3295,-3.3174,-3.3211,-3.3325,-3.3395,-3.3414,-3.3463,-3.3579,-3.3599,-3.3512,-3.3692,-3.3719,-3.383,-3.3863,-3.3826,-3.3836,-3.4123,-3.4126,-3.4129,-3.4094,0,0,0,0,0,0,-3.2965,-3.3005,-3.3043,-3.3174,-3.3218,-3.339,-3.3398,-3.3419,-3.3481,-3.3486,-3.3611,-3.3631,-3.3693,-3.3814,-3.3841,-3.3876,-3.3844,-3.4121,-3.4125,-3.4128,-3.4093,-3.4096,-3.4098,0,0,0,0,0,-3.2951,-3.3023,-3.3045,-3.3078,-3.3269,-3.3391,-3.3416,-3.3488,-3.3484,-3.3522,-3.3597,-3.3627,-3.3855,-3.3825,-3.3855,-3.3895,-3.4119,-3.4124,-3.4128,-3.4092,-3.4095,-3.4098,0,0,0,0,0,0,-3.289,-3.3041,-3.3068,-3.3185,-3.3275,-3.3404,-3.3455,-3.3489,-3.3581,-3.3581,-3.3664,-3.3692,-3.3797,-3.3857,-3.3821,-3.3993,-3.3988,-3.3999,-3.3951,-3.3955,-3.3957,-3.394,-3.3852,0,0,0,0,0,-3.2891,-3.2981,-3.3107,-3.3198,-3.3242,-3.334,-3.3397,-3.3445,-3.3541,-3.3579,-3.3661,-3.3751,-3.3843,-3.3902,-3.3993,-3.4102,-3.413,-3.4144,-3.4146,-3.4147,-3.4155,-3.4217,-3.4225,-3.4144,-3.4144,-3.4144,0,0,-3.2893,-3.2986,-3.3037,-3.3188,-3.3264,-3.3353,-3.3372,-3.3465,-3.3531,-3.3592,-3.3703,-3.3766,-3.3872,-3.3983,-3.4035,-3.4036,-3.4184,-3.4153,-3.4153,-3.4161,-3.4222,-3.423,-3.4237,-3.4147,-3.4146,-3.4146,0,0,-3.2942,-3.3022,-3.3107,-3.3183,-3.3298,-3.3363,-3.3383,-3.3508,-3.3553,-3.3666,-3.3714,-3.3792,-3.3949,-3.4023,-3.4081,-3.4158,-3.4188,-3.4184,-3.4197,-3.4256,-3.4263,-3.4269,-3.4296,-3.4305,-3.4192,-3.4192,-3.4192,0,-3.2928,-3.3067,-3.3145,-3.3237,-3.3301,-3.3363,-3.3448,-3.3517,-3.3655,-3.3697,-3.3696,-3.3895,-3.397,-3.4099,-3.4118,-3.4163,-3.4187,-3.4171,-3.4256,-3.4263,-3.4269,-3.4296,-3.4306,-3.4191,-3.4191,-3.4191,-3.4191,0,-3.3045,-3.314,-3.3195,-3.333,-3.34,-3.3487,-3.3577,-3.3638,-3.368,-3.3744,-3.3858,-3.3951,-3.4062,-3.4096,-3.4136,-3.423,-3.4227,-3.424,-3.4236,-3.4275,-3.4301,-3.4312,-3.4189,-3.419,-3.419,-3.419,0,0,-3.3063,-3.3241,-3.3259,-3.3321,-3.3453,-3.3527,-3.3616,-3.3728,-3.3779,-3.3871,-3.3948,-3.4079,-3.4093,-3.4158,-3.4207,-3.4259,-3.4314,-3.4266,-3.427,-3.4272,-3.4423,-3.4413,-3.4424,-3.4335,-3.4338,-3.4339,-3.4414,0,-3.3129,-3.3296,-3.3368,-3.35,-3.3589,-3.3648,-3.3726,-3.3814,-3.3876,-3.3958,-3.4026,-3.4119,-3.4129,-3.4169,-3.4223,-3.4296,-3.4346,-3.4291,-3.4406,-3.4409,-3.4378,-3.4438,-3.4428,-3.4494,-3.4425,-3.4427,-3.4428,0,-3.3229,-3.3325,-3.3467,-3.3588,-3.3628,-3.3697,-3.3805,-3.3884,-3.3984,-3.4025,-3.4099,-3.4146,-3.424,-3.423,-3.4361,-3.4323,-3.4374,-3.4416,-3.4421,-3.4434,-3.4421,-3.4453,-3.4517,-3.4527,-3.4446,-3.4444,-3.4443,0,-3.3228,-3.3392,-3.3499,-3.355,-3.3694,-3.3741,-3.3803,-3.3902,-3.3964,-3.4058,-3.4099,-3.42,-3.4256,-3.4333,-3.4405,-3.4391,-3.4529,-3.4525,-3.4565,-3.4563,-3.4592,-3.4589,-3.4665,-3.4623,-3.4623,-3.4623,-3.4623,0,-3.3295,-3.3379,-3.35,-3.3566,-3.3661,-3.3743,-3.3835,-3.39,-3.3988,-3.4066,-3.4122,-3.4193,-3.4284,-3.4366,-3.4423,-3.4523,-3.4547,-3.4582,-3.4596,-3.4578,-3.4573,-3.4613,-3.461,-3.4626,-3.4625,-3.4625,-3.4624,0,-3.331,-3.3395,-3.3515,-3.3642,-3.3676,-3.3741,-3.3849,-3.3914,-3.3979,-3.4076,-3.4103,-3.4205,-3.4304,-3.4385,-3.4514,-3.4552,-3.4656,-3.4672,-3.4623,-3.4631,-3.4667,-3.4662,-3.4771,-3.4789,-3.4734,-3.4735,-3.4735,0,-3.3347,-3.3414,-3.355,-3.3607,-3.3669,-3.376,-3.3825,-3.3907,-3.3971,-3.409,-3.414,-3.4244,-3.4332,-3.4488,-3.4572,-3.4671,-3.469,-3.4721,-3.4705,-3.4684,-3.469,-3.4686,-3.4693,-3.4722,-3.4722,-3.4722,-3.4723,0,-3.3405,-3.3444,-3.3536,-3.3643,-3.3719,-3.3807,-3.3895,-3.3938,-3.4036,-3.4104,-3.4209,-3.4277,-3.441,-3.4512,-3.462,-3.4681,-3.4718,-3.4727,-3.4742,-3.4723,-3.4693,-3.471,-3.4628,-3.4724,-3.4724,-3.4724,-3.4724,-3.4724,-3.3433,-3.3496,-3.3601,-3.3702,-3.3777,-3.3859,-3.3926,-3.4,-3.4089,-3.4206,-3.4248,-3.4354,-3.4452,-3.4601,-3.4663,-3.4746,-3.4749,-3.477,-3.4776,-3.478,-3.4778,-3.4679,-3.4766,-3.4766,-3.4766,-3.4766,-3.4766,0,-3.3494,-3.3565,-3.3657,-3.378,-3.3859,-3.3889,-3.3988,-3.4051,-3.4145,-3.4234,-3.432,-3.4439,-3.4538,-3.463,-3.4733,-3.4782,-3.4801,-3.4806,-3.4804,-3.4817,-3.4769,-3.4746,-3.4789,-3.4789,-3.4789,-3.4789,-3.4789,-3.4789,-3.3535,-3.3643,-3.3694,-3.3838,-3.3908,-3.4015,-3.4069,-3.4144,-3.4216,-3.4347,-3.4431,-3.449,-3.458,-3.4691,-3.4783,-3.4807,-3.4842,-3.4843,-3.4871,-3.4824,-3.4821,-3.4818,-3.4797,-3.485,-3.485,-3.4913,-3.4914,-3.4914]},{"header":{"parameterUnit":"m.s-1","parameterCategory":1,"la1":30.2991,"la2":30.254,"lo1":-89.0895,"lo2":-89.0444,"dy":0.0017,"dx":0.0017,"nx":28,"ny":28,"refTime":"2024-03-25T09:00:00:Z","depth":0,"parameterNumber":3,"parameterNumberName":"V-component_of_WINDS"},"data":[0,0,0,0,0,0,0,0,0,0,0,0,0,0,0,0,0,0,0,0,0,0,0,0,0,0,0,0,0,0,0,0,0,0,0,0,0,0,0,0,0,0,0,0,0,0,0,0,0,0,0,0,0,0,0,0,0,0,7.7939,7.7942,0,7.8245,7.8248,7.8251,7.8331,7.8329,7.8327,7.8325,7.8633,7.8643,7.8652,0,0,0,0,0,0,0,0,0,0,0,0,0,7.7419,7.7428,7.7939,7.7943,7.7947,7.8244,7.8248,7.8252,7.8331,7.8329,7.8326,7.8324,7.863,7.8641,7.8653,0,0,0,0,0,0,0,0,0,0,0,0,0,7.7676,7.7431,7.7938,7.8022,7.8032,7.8243,7.8248,7.8253,7.8331,7.8329,7.8326,7.8323,7.8626,7.864,7.8655,7.8803,0,0,7.87,7.8707,0,0,0,0,0,0,0,0,7.7662,7.7695,7.8006,7.8016,7.8029,7.8247,7.8178,7.8438,7.8332,7.8218,7.8325,7.8322,7.8506,7.8531,7.8594,7.8817,7.8831,7.8702,7.8711,7.8717,7.8721,0,0,0,0,0,0,0,7.7644,7.7683,7.806,7.801,7.8024,7.8042,7.8076,7.8227,7.8374,7.8227,7.8234,7.8269,7.8512,7.858,7.8602,7.8835,7.8701,7.8715,7.8724,7.873,7.9197,7.9201,0,0,0,0,0,0,7.7612,7.7667,7.805,7.8069,7.7835,7.8054,7.8092,7.8179,7.8372,7.8399,7.8271,7.8272,7.8556,7.8584,7.8613,7.8802,7.8717,7.8731,7.874,7.9194,7.9198,7.9202,0,0,0,0,0,0,7.7601,7.7646,7.8038,7.787,7.7922,7.8066,7.8164,7.8187,7.8255,7.8406,7.8432,7.8314,7.8554,7.8592,7.8756,7.8813,7.8738,7.8751,7.919,7.9195,7.92,7.9178,0,0,0,0,0,0,7.7586,7.7641,7.77,7.7871,7.793,7.8177,7.8168,7.8195,7.8281,7.8284,7.8453,7.8478,7.8555,7.8733,7.8771,7.8832,7.8763,7.9185,7.9192,7.9198,7.9174,7.9182,7.9188,0,0,0,0,0,7.7567,7.768,7.7703,7.7748,7.8007,7.818,7.8214,7.8302,7.8285,7.8345,7.8442,7.8472,7.88,7.875,7.8792,7.8859,7.9182,7.919,7.9198,7.9171,7.918,7.9188,0,0,0,0,0,0,7.751,7.7704,7.7731,7.7903,7.8025,7.8193,7.8271,7.8309,7.8436,7.8434,7.8536,7.8574,7.8731,7.8811,7.8751,7.9014,7.8991,7.9008,7.8956,7.8966,7.8973,7.8951,7.8775,0,0,0,0,0,7.7517,7.7643,7.7805,7.7941,7.8001,7.8126,7.8204,7.8262,7.8391,7.8443,7.8552,7.8674,7.8806,7.889,7.9018,7.9185,7.9224,7.9252,7.9259,7.9264,7.9278,7.9374,7.9389,7.9228,7.9227,7.9227,0,0,7.7534,7.7656,7.7729,7.7933,7.8034,7.8162,7.8168,7.8302,7.8398,7.8462,7.8626,7.8709,7.8853,7.902,7.9098,7.9091,7.9331,7.9274,7.9277,7.9289,7.9384,7.9399,7.9412,7.9233,7.9232,7.9231,0,0,7.7631,7.7735,7.7861,7.7963,7.8116,7.8199,7.8228,7.8392,7.8451,7.8616,7.8668,7.8781,7.9004,7.9106,7.9187,7.9322,7.9355,7.936,7.9398,7.949,7.9503,7.9515,7.9565,7.9582,7.9373,7.9373,7.9373,0,7.7632,7.7828,7.7921,7.8054,7.8142,7.8208,7.8337,7.843,7.8616,7.8676,7.8665,7.8948,7.9049,7.9242,7.9275,7.9337,7.9375,7.9343,7.9494,7.9507,7.9519,7.9568,7.9587,7.9373,7.9373,7.9373,7.9373,0,7.7823,7.7958,7.8041,7.8223,7.832,7.845,7.8561,7.8648,7.8697,7.878,7.8947,7.9071,7.9227,7.9276,7.9324,7.9476,7.9467,7.9474,7.9454,7.9533,7.9581,7.96,7.9373,7.9373,7.9373,7.9373,0,0,7.7894,7.8126,7.8155,7.824,7.8414,7.8519,7.8651,7.8806,7.8879,7.9005,7.9119,7.9307,7.9315,7.9406,7.9465,7.9546,7.9648,7.9543,7.9548,7.9561,7.9825,7.9821,7.9842,7.967,7.9674,7.9677,7.9814,0,7.8015,7.8256,7.8344,7.8541,7.8668,7.8732,7.8847,7.8966,7.9046,7.9164,7.9252,7.9384,7.9383,7.9439,7.9522,7.9618,7.9703,7.9609,7.9778,7.9782,7.9743,7.9867,7.9863,7.9986,7.9833,7.9836,7.9839,0,7.8188,7.8319,7.8531,7.8691,7.8747,7.8849,7.8999,7.911,7.9246,7.9299,7.9401,7.9456,7.9596,7.9565,7.976,7.9694,7.9768,7.9825,7.9832,7.9853,7.9817,7.9893,8.0027,8.0047,7.9869,7.9866,7.9864,0,7.8222,7.8451,7.8608,7.8677,7.8867,7.8938,7.902,7.9153,7.9241,7.937,7.9428,7.9571,7.965,7.9759,7.985,7.9819,8.0037,8.0014,8.0086,8.0084,8.0131,8.0127,8.0281,8.0173,8.0173,8.0173,8.0172,0,7.8349,7.8476,7.8626,7.8723,7.8867,7.8965,7.9105,7.919,7.9308,7.9422,7.9484,7.9589,7.9702,7.9822,7.9893,8.0045,8.0079,8.0126,8.0144,8.0122,8.0117,8.0174,8.0169,8.0178,8.0177,8.0176,8.0175,0,7.8413,7.8518,7.8694,7.886,7.8904,7.9004,7.9145,7.9241,7.9324,7.9467,7.9506,7.9636,7.978,7.9881,8.0065,8.0113,8.0278,8.0293,8.0233,8.0242,8.031,8.0303,8.0508,8.0541,8.0408,8.0409,8.041,0,7.8489,7.8589,7.8766,7.8848,7.8931,7.9061,7.9152,7.9251,7.9343,7.9505,7.9581,7.973,7.9855,8.0081,8.0191,8.0333,8.0354,8.0416,8.0376,8.0351,8.0358,8.0353,8.0364,8.0423,8.0424,8.0424,8.0425,0,7.8613,7.866,7.879,7.8938,7.9045,7.9165,7.9286,7.9349,7.9469,7.9569,7.9718,7.9815,8.0004,8.0151,8.0303,8.0386,8.0427,8.0437,8.0461,8.0442,8.0404,8.0428,8.0252,8.0432,8.0431,8.0431,8.0431,8.043,7.8688,7.878,7.892,7.9063,7.9164,7.9276,7.9375,7.9471,7.9598,7.9762,7.9812,7.9967,8.01,8.0309,8.0394,8.0516,8.0513,8.0547,8.0557,8.0565,8.0566,8.0382,8.0544,8.0544,8.0544,8.0544,8.0544,0,7.8818,7.8911,7.9041,7.921,7.9321,7.935,7.9485,7.9577,7.9713,7.9835,7.9957,8.0128,8.0271,8.0392,8.054,8.0615,8.0637,8.0651,8.0647,8.0666,8.0559,8.0525,8.063,8.063,8.063,8.063,8.063,8.063,7.8899,7.9058,7.9122,7.9332,7.9424,7.9579,7.9654,7.9757,7.9855,8.0045,8.0165,8.0243,8.0365,8.0522,8.0655,8.0687,8.0739,8.0749,8.0785,8.0683,8.0674,8.0664,8.0632,8.0759,8.0759,8.0883,8.0884,8.0885]}]]